Change the Weather History Date:

Saturday, October 13, 2012

  Actual Average (KSLO) Record (KSLO)
Temperature  
Mean Temperature 62 °F -  
Max Temperature 76 °F 70 °F 90 °F (1989)
Min Temperature 50 °F 45 °F 27 °F (1977)
Degree Days  
Heating Degree Days 2    
Growing Degree Days 12 (Base 50)    
Moisture  
Dew Point 58 °F    
Average Humidity 83    
Maximum Humidity 95    
Minimum Humidity 66    
Precipitation  
Precipitation 0.00 in - - ()
Sea Level Pressure  
Sea Level Pressure 30.07 in    
Wind  
Wind Speed 7 mph (SSE)    
Max Wind Speed 23 mph    
Max Gust Speed 32 mph    
Visibility 7 miles    
Events      
Averages and records for this station are not official NWS values.
T = Trace of Precipitation, MM = Missing Value Source: NWS Daily Summary

Daily Weather History Graph

Daily Weather History Graph

Search for Another Location

Airport or City:

Trip Planner

Search our weather history database for the weather conditions in past years. The results will help you decide how hot, cold, wet, or windy it might be!

Date:

Astronomy

Oct. 13, 2012 Rise Set
Actual Time 7:03 AM CDT 6:20 PM CDT
Civil Twilight 6:37 AM CDT 6:46 PM CDT
Nautical Twilight 6:06 AM CDT 7:17 PM CDT
Astronomical Twilight 5:35 AM CDT 7:48 PM CDT
Moon 4:54 AM CDT (10/13) 5:03 PM CDT (10/13)
Length of Visible Light 12h 09m
Length of Day
11h 16m
Waning Crescent, 5% of the Moon is Illuminated
Oct 13
Waning Crescent
Oct 15
New
Oct 21
First Quarter
Oct 29
Full
Nov 6
Last Quarter

Hourly Weather History & Observations

Time (CDT) Temp. Dew Point Humidity Pressure Visibility Wind Dir Wind Speed Gust Speed Precip Events Conditions
12:35 AM 51.8 °F 48.2 °F 88% 30.24 in 10.0 mi Calm Calm - N/A   Clear
12:55 AM 51.8 °F 48.2 °F 88% 30.24 in 10.0 mi Calm Calm - N/A   Clear
1:15 AM 50.0 °F 46.9 °F 89% 30.23 in 10.0 mi Calm Calm - N/A   Clear
1:35 AM 51.3 °F 48.6 °F 90% 30.23 in 10.0 mi Calm Calm - N/A   Clear
1:55 AM 50.7 °F 47.8 °F 90% 30.22 in 10.0 mi Calm Calm - N/A   Scattered Clouds
2:15 AM 50.2 °F 47.8 °F 92% 30.21 in 7.0 mi Calm Calm - N/A   Clear
2:35 AM 52.7 °F 49.8 °F 90% 30.20 in 7.0 mi SE 5.8 mph - N/A   Clear
2:55 AM 53.6 °F 50.7 °F 90% 30.19 in 10.0 mi SE 6.9 mph - N/A   Clear
3:15 AM 54.7 °F 51.3 °F 88% 30.18 in 10.0 mi SE 6.9 mph - N/A   Clear
3:35 AM 54.5 °F 51.1 °F 88% 30.17 in 10.0 mi SE 6.9 mph - N/A   Clear
3:55 AM 54.5 °F 50.9 °F 88% 30.16 in 10.0 mi SE 9.2 mph - N/A   Clear
4:15 AM 54.9 °F 51.1 °F 87% 30.15 in 10.0 mi SE 8.1 mph - N/A   Clear
4:35 AM 55.2 °F 51.4 °F 87% 30.15 in 10.0 mi SSE 10.4 mph 17.3 mph N/A   Scattered Clouds
4:55 AM 55.4 °F 52.7 °F 91% 30.16 in 5.0 mi SSE 9.2 mph - N/A   Mostly Cloudy
5:15 AM 55.2 °F 53.1 °F 92% 30.15 in 2.5 mi SE 6.9 mph - N/A   Overcast
5:35 AM 55.2 °F 53.2 °F 93% 30.15 in 1.8 mi SE 5.8 mph - N/A   Overcast
5:55 AM 55.4 °F 53.6 °F 94% 30.16 in 1.8 mi SSE 8.1 mph - N/A   Overcast
6:15 AM 55.6 °F 54.0 °F 94% 30.16 in 1.8 mi SE 6.9 mph - N/A   Overcast
6:35 AM 55.9 °F 54.5 °F 95% 30.17 in 1.8 mi SSE 4.6 mph - N/A   Overcast
6:55 AM 56.1 °F 54.5 °F 94% 30.16 in 1.5 mi SSE 8.1 mph - N/A   Overcast
7:15 AM 56.3 °F 54.7 °F 94% 30.15 in 1.5 mi SE 6.9 mph - N/A   Overcast
7:35 AM 56.8 °F 55.4 °F 95% 30.14 in 1.0 mi SSE 6.9 mph - N/A   Overcast
7:55 AM 57.6 °F 55.9 °F 94% 30.13 in 1.2 mi SSE 6.9 mph - N/A   Overcast
8:15 AM 58.1 °F 56.5 °F 94% 30.13 in 1.0 mi South 8.1 mph - N/A   Overcast
8:35 AM 59.0 °F 57.2 °F 94% 30.13 in 0.8 mi South 8.1 mph - N/A   Mist
8:55 AM 59.2 °F 57.6 °F 94% 30.13 in 1.2 mi South 6.9 mph - N/A   Overcast
9:15 AM 60.8 °F 59.0 °F 94% 30.13 in 2.0 mi South 9.2 mph - N/A   Overcast
9:35 AM 60.4 °F 58.6 °F 94% 30.13 in 2.0 mi South 9.2 mph - N/A   Overcast
9:55 AM 61.0 °F 59.0 °F 93% 30.13 in 2.0 mi South 10.4 mph - N/A   Overcast
10:15 AM 62.6 °F 59.0 °F 88% 30.11 in 2.5 mi South 11.5 mph - N/A   Overcast
10:35 AM 63.0 °F 60.6 °F 92% 30.12 in 2.5 mi South 13.8 mph 17.3 mph N/A   Overcast
10:55 AM 63.5 °F 60.8 °F 91% 30.11 in 2.5 mi South 13.8 mph - N/A   Overcast
11:15 AM 64.9 °F 61.3 °F 88% 30.10 in 3.0 mi South 10.4 mph 17.3 mph N/A   Overcast
11:35 AM 64.9 °F 61.7 °F 89% 30.10 in 3.0 mi South 11.5 mph - N/A   Overcast
11:55 AM 65.8 °F 62.1 °F 88% 30.09 in 4.0 mi South 12.7 mph 16.1 mph N/A   Overcast
12:35 PM 68.9 °F 63.1 °F 82% 30.07 in 5.0 mi South 12.7 mph 20.7 mph N/A   Haze
12:55 PM 69.4 °F 63.3 °F 81% 30.06 in 7.0 mi South 16.1 mph 20.7 mph N/A   Mostly Cloudy
1:15 PM 71.1 °F 63.7 °F 77% 30.04 in 7.0 mi South 12.7 mph - N/A   Mostly Cloudy
1:35 PM 72.3 °F 63.5 °F 74% 30.03 in 10.0 mi South 19.6 mph 25.3 mph N/A   Scattered Clouds
1:55 PM 74.1 °F 64.4 °F 72% 30.03 in 10.0 mi South 13.8 mph 20.7 mph N/A   Clear
2:15 PM 75.4 °F 63.7 °F 67% 30.01 in 10.0 mi South 23.0 mph 26.5 mph N/A   Clear
2:35 PM 75.4 °F 63.5 °F 66% 30.00 in 10.0 mi SSW 19.6 mph 24.2 mph N/A   Scattered Clouds
2:55 PM 74.7 °F 63.7 °F 69% 30.00 in 10.0 mi SSW 20.7 mph 27.6 mph N/A   Scattered Clouds
3:35 PM 74.8 °F 63.7 °F 68% 30.00 in 10.0 mi SSW 21.9 mph 32.2 mph N/A   Scattered Clouds
3:55 PM 74.7 °F 63.0 °F 67% 29.99 in 10.0 mi SSW 19.6 mph 25.3 mph N/A   Scattered Clouds
4:15 PM 74.3 °F 62.8 °F 67% 29.98 in 10.0 mi SSW 16.1 mph 26.5 mph N/A   Clear
4:35 PM 73.6 °F 63.0 °F 69% 29.98 in 10.0 mi SSW 16.1 mph 24.2 mph N/A   Clear
4:55 PM 72.9 °F 63.5 °F 72% 29.98 in 10.0 mi South 10.4 mph - N/A   Clear
5:15 PM 72.1 °F 63.7 °F 75% 29.97 in 10.0 mi South 8.1 mph - N/A   Clear
5:35 PM 71.6 °F 64.4 °F 78% 29.96 in 10.0 mi South 6.9 mph - N/A   Clear
5:55 PM 70.2 °F 63.7 °F 80% 29.95 in 7.0 mi SSE 5.8 mph - N/A   Clear
6:15 PM 68.9 °F 63.5 °F 83% 29.96 in 7.0 mi South 4.6 mph - N/A   Clear
6:35 PM 67.6 °F 63.0 °F 85% 29.95 in 7.0 mi SSE 4.6 mph - N/A   Clear
6:55 PM 68.0 °F 64.4 °F 88% 29.95 in 7.0 mi SSE 6.9 mph - N/A   Clear
7:35 PM 69.1 °F 62.6 °F 80% 29.95 in 10.0 mi SSE 5.8 mph - N/A   Mostly Cloudy
7:55 PM 69.8 °F 62.6 °F 78% 29.95 in 10.0 mi SSE 5.8 mph - N/A   Overcast
8:15 PM 69.8 °F 62.6 °F 78% 29.95 in 10.0 mi SSE 5.8 mph - N/A   Overcast
8:35 PM 71.6 °F 62.6 °F 73% 29.94 in 10.0 mi SSE 9.2 mph - N/A   Scattered Clouds
8:55 PM 70.7 °F 62.1 °F 74% 29.94 in 10.0 mi SSE 8.1 mph - N/A   Clear
9:15 PM 70.7 °F 61.7 °F 73% 29.93 in 10.0 mi SSE 10.4 mph - N/A   Clear
9:35 PM 70.7 °F 61.2 °F 72% 29.92 in 10.0 mi SSE 10.4 mph - N/A   Clear
9:55 PM 70.9 °F 60.8 °F 70% 29.92 in 10.0 mi SSE 10.4 mph - N/A   Scattered Clouds
10:15 PM 70.3 °F 60.8 °F 72% 29.91 in 10.0 mi SSE 10.4 mph 16.1 mph N/A   Clear
10:35 PM 69.8 °F 60.8 °F 73% 29.89 in 10.0 mi SSE 11.5 mph 17.3 mph N/A   Scattered Clouds
11:15 PM 70.7 °F 60.6 °F 70% 29.87 in 10.0 mi SSE 11.5 mph 18.4 mph N/A   Clear
11:35 PM 70.7 °F 60.4 °F 70% 29.85 in 10.0 mi SSE 12.7 mph 18.4 mph N/A   Clear